METEOR-M 2 (40069 NORAD) Tracking and Keplerian Element Data

This shows tracking and keplerian element data for the satellite.

Feedback or suggestion? Click here.




ElementValue
Catalog40069
NameMETEOR-M 2
Epoch Orbit51435
Epoch Day160.22876854
Epoch Year2024
RAAN154.8675
Inclination98.4359
Eccentricity0.0006416
Argument of Perigee35.2662
Mean Anonmoly324.894
Mean Motion14.20975263
Decay Rate2.97E-06
L11 40069U 14037A 24160.22876854 .00000297 00000+0 15625-3 0 9998
L22 40069 98.4359 154.8675 0006416 35.2662 324.8940 14.20975263514353



Live tracking and technical data element details for METEOR-M 2 (NORAD 40069). METEOR-M 2 can be tracked NOW for your location showing map with azimuth and elevation plus other details from your city location.







IsCatalogInMostPopularTable: catalog: 40069, numindb: 658
Update: records affected: 1



GetName: 40069 METEOR-M 2

Hit Count: updated at: Mon, 17 Jun 2024 22:21:34 GMT